STARLINK-1982 (47580 NORAD) Tracking and Keplerian Element Data

This shows tracking and keplerian element data for the satellite.

Feedback or suggestion? Click here.




ElementValue
Catalog47580
NameSTARLINK-1982
Epoch Orbit1076
Epoch Day99.91667824
Epoch Year2021
RAAN167.333
Inclination53.0538
Eccentricity0.0003694
Argument of Perigee6.5673
Mean Anonmoly139.4015
Mean Motion15.62745296
Decay Rate5.827E-05
L11 47580U 21009AJ 21099.91667824 .00005827 00000-0 69465-4 0 9996
L22 47580 53.0538 167.3330 0003694 6.5673 139.4015 15.62745296 10766

Live tracking and technical data element details for STARLINK-1982 (NORAD 47580). STARLINK-1982 can be tracked NOW for your location showing map with azimuth and elevation plus other details from your city location.

Track the satellite on the map from your city or location and see movement details for azimuth, elevation, latitude, longitude, range, height, and movement on the map or in text.







IsCatalogInMostPopularTable: catalog: 47580, numindb: 20
Update: records affected: 1



GetName: 47580 STARLINK-1982

Hit Count: updated at: Sat, 10 Apr 2021 19:57:41 GMT